Theta_e
320 319 317 317 316 314 315 316 315 314 317 317 318 319 318 317 317 317 315 313 312 313
320 319 318 317 317 315 314 316 317 317 316 317 317 317 318 318 316 317 316 315 314 313
319 320 320 319 317 317 315 314 314 314 316 317 318 318 318 317 318 317 317 316 315 314
318 320 320 319 319 319 318 316 314 315 315 315 317 318 318 318 318 316 316 317 316 316
318 319 319 319 320 320 319 319 317 315 315 314 315 316 316 316 317 315 316 317 316 315
316 317 318 319 319 319 319 319 319 318 316 315 314 314 314 315 315 314 315 315 315 314
316 317 318 318 319 319 319 319 319 319 318 317 316 314 313 314 314 314 314 313 314 314
318 318 319 319 319 319 319 319 319 318 318 317 316 316 315 314 313 312 313 313 312 312
318 318 318 318 318 318 319 318 318 317 317 316 315 305 301 309 313 313 312 311 312 312
304 305 307 312 317 317 317 317 317 318 318 317 317 304 300 299 313 313 312 312 312 311
297 298 301 303 302 304 309 317 317 317 317 318 318 304 302 299 310 312 313 313 312 312
291 293 294 294 295 298 300 303 306 317 318 317 317 303 300 300 310 312 312 314 314 313
287 288 288 289 291 292 295 298 301 304 301 292 294 289 290 296 312 310 310 312 312 302
285 286 286 286 288 289 291 293 292 289 287 286 285 286 288 290 295 308 308 307 303 287
Wind_Speed
12 9 8 9 7 6 7 8 7 6 7 8 8 8 9 7 6 7 6 8 8 7
12 11 9 8 8 8 7 7 9 9 9 9 9 10 9 8 9 11 11 12 11 9
12 12 10 9 10 9 8 9 8 8 8 8 10 11 12 11 13 14 12 12 11 10
11 12 10 9 10 10 9 10 10 11 11 11 10 11 12 13 13 14 15 13 13 15
9 10 12 11 11 10 10 10 12 12 12 12 13 11 12 13 12 12 14 14 13 14
9 9 11 11 10 10 11 11 11 13 13 14 13 14 14 14 14 14 15 15 15 15
9 8 9 10 11 11 13 13 13 13 13 14 15 15 15 15 16 17 16 15 17 16
9 9 11 12 13 14 13 13 14 14 15 14 15 13 17 17 17 18 18 18 17 18
2 7 10 11 11 11 13 14 12 15 15 16 13 17 20 19 17 17 18 19 19 19
11 9 9 8 8 13 14 13 15 16 16 19 18 19 21 23 17 16 18 19 18 17
11 11 11 10 10 9 9 10 14 16 18 18 18 21 19 20 20 18 20 20 20 19
12 11 11 11 11 9 10 9 10 11 16 17 19 17 20 16 17 19 22 20 20 20
12 10 11 11 10 10 9 10 9 10 12 18 12 19 20 9 13 17 15 18 20 22
11 9 10 10 10 9 9 8 8 8 9 12 17 13 21 17 6 10 12 11 6 6
Wind_Direction
181 183 184 178 174 178 192 194 155 175 182 188 184 185 189 188 193 211 218 214 205 198
185 187 189 180 175 179 177 187 191 184 184 182 185 187 193 199 195 203 221 227 216 212
188 188 188 193 196 183 179 180 177 180 192 191 195 190 190 202 211 208 217 218 216 216
189 191 190 195 202 203 195 190 193 192 193 194 199 200 202 210 208 211 219 219 213 217
193 194 194 197 199 199 203 205 205 206 207 204 206 203 209 213 211 206 216 220 221 225
194 197 194 204 200 196 204 211 211 212 212 214 211 211 209 214 216 217 218 220 221 222
207 208 215 217 214 214 213 213 214 218 219 218 218 218 221 219 224 227 227 224 226 225
204 203 217 217 220 220 221 220 216 217 220 220 221 219 219 222 224 229 232 233 231 230
285 213 210 216 223 219 220 223 221 223 222 221 224 221 213 213 221 225 227 233 236 237
21 17 17 355 248 228 229 224 228 230 228 230 231 223 213 211 223 224 228 232 235 237
16 13 6 5 359 345 333 261 232 232 230 234 239 234 224 217 222 229 231 229 229 231
11 10 7 2 349 339 332 326 316 282 243 237 244 234 222 206 223 231 235 236 234 232
10 9 6 358 353 339 341 328 331 327 7 32 11 27 9 262 224 227 230 237 240 233
19 13 6 356 357 350 348 355 6 25 39 37 25 17 13 5 282 255 242 234 257 358